Year,Month,Day,Hour,Minute,Value (Times are PST for temperature in C)
2010,04,29,00,00,7.20
2010,04,29,00,01,7.20
2010,04,29,00,02,7.20
2010,04,29,00,03,7.20
2010,04,29,00,04,7.20
2010,04,29,00,05,7.20
2010,04,29,00,06,7.20
2010,04,29,00,07,7.20
2010,04,29,00,08,7.20
2010,04,29,00,09,7.20
2010,04,29,00,10,7.20
2010,04,29,00,11,7.20
2010,04,29,00,12,7.20
2010,04,29,00,13,7.20
2010,04,29,00,14,7.20
2010,04,29,00,15,7.30
2010,04,29,00,16,7.30
2010,04,29,00,17,7.30
2010,04,29,00,18,7.30
2010,04,29,00,19,7.30
2010,04,29,00,20,7.30
2010,04,29,00,21,7.30
2010,04,29,00,22,7.30
2010,04,29,00,23,7.30
2010,04,29,00,24,7.30
2010,04,29,00,25,7.30
2010,04,29,00,26,7.30
2010,04,29,00,27,7.30
2010,04,29,00,28,7.30
2010,04,29,00,29,7.30
2010,04,29,00,30,7.30
2010,04,29,00,31,7.30
2010,04,29,00,32,7.30
2010,04,29,00,33,7.30
2010,04,29,00,34,7.30
2010,04,29,00,35,7.20
2010,04,29,00,36,7.20
2010,04,29,00,37,7.20
2010,04,29,00,38,7.20
2010,04,29,00,39,7.20
2010,04,29,00,40,7.20
2010,04,29,00,41,7.20
2010,04,29,00,42,7.30
2010,04,29,00,43,7.30
2010,04,29,00,44,7.30
2010,04,29,00,45,7.30
2010,04,29,00,46,7.30
2010,04,29,00,47,7.30
2010,04,29,00,48,7.30
2010,04,29,00,49,7.30
2010,04,29,00,50,7.30
2010,04,29,00,51,7.30
2010,04,29,00,52,7.30
2010,04,29,00,53,7.30
2010,04,29,00,54,7.30
2010,04,29,00,55,7.30
2010,04,29,00,56,7.30
2010,04,29,00,57,7.30
2010,04,29,00,58,7.40
2010,04,29,00,59,7.40
2010,04,29,01,00,7.40
2010,04,29,01,01,7.40
2010,04,29,01,02,7.40
2010,04,29,01,03,7.40
2010,04,29,01,04,7.40
2010,04,29,01,05,7.40
2010,04,29,01,06,7.40
2010,04,29,01,07,7.40
2010,04,29,01,08,7.40
2010,04,29,01,09,7.40
2010,04,29,01,10,7.40
2010,04,29,01,11,7.40
2010,04,29,01,12,7.40
2010,04,29,01,13,7.40
2010,04,29,01,14,7.40
2010,04,29,01,15,7.40
2010,04,29,01,16,7.40
2010,04,29,01,17,7.30
2010,04,29,01,18,7.30
2010,04,29,01,19,7.30
2010,04,29,01,20,7.30
2010,04,29,01,21,7.20
2010,04,29,01,22,7.20
2010,04,29,01,23,7.20
2010,04,29,01,24,7.20
2010,04,29,01,25,7.20
2010,04,29,01,26,7.20
2010,04,29,01,27,7.20
2010,04,29,01,28,7.20
2010,04,29,01,29,7.20
2010,04,29,01,30,7.20
2010,04,29,01,31,7.20
2010,04,29,01,32,7.20
2010,04,29,01,33,7.20
2010,04,29,01,34,7.20
2010,04,29,01,35,7.20
2010,04,29,01,36,7.20
2010,04,29,01,37,7.20
2010,04,29,01,38,7.30
2010,04,29,01,39,7.30
2010,04,29,01,40,7.30
2010,04,29,01,41,7.30
2010,04,29,01,42,7.30
2010,04,29,01,43,7.30
2010,04,29,01,44,7.30
2010,04,29,01,45,7.30
2010,04,29,01,46,7.30
2010,04,29,01,47,7.20
2010,04,29,01,48,7.20
2010,04,29,01,49,7.20
2010,04,29,01,50,7.20
2010,04,29,01,51,7.30
2010,04,29,01,52,7.30
2010,04,29,01,53,7.30
2010,04,29,01,54,7.30
2010,04,29,01,55,7.30
2010,04,29,01,56,7.30
2010,04,29,01,57,7.30
2010,04,29,01,58,7.40
2010,04,29,01,59,7.40
2010,04,29,02,00,7.40
2010,04,29,02,01,7.40
2010,04,29,02,02,7.50
2010,04,29,02,03,7.50
2010,04,29,02,04,7.60
2010,04,29,02,05,7.60
2010,04,29,02,06,7.70
2010,04,29,02,07,7.70
2010,04,29,02,08,7.80
2010,04,29,02,09,7.80
2010,04,29,02,10,7.80
2010,04,29,02,11,7.80
2010,04,29,02,12,7.90
2010,04,29,02,13,7.90
2010,04,29,02,14,7.90
2010,04,29,02,15,8.00
2010,04,29,02,16,8.00
2010,04,29,02,17,8.00
2010,04,29,02,18,8.10
2010,04,29,02,19,8.10
2010,04,29,02,20,8.10
2010,04,29,02,21,8.10
2010,04,29,02,22,8.10
2010,04,29,02,23,8.10
2010,04,29,02,24,8.10
2010,04,29,02,25,8.10
2010,04,29,02,26,8.10
2010,04,29,02,27,8.10
2010,04,29,02,28,8.10
2010,04,29,02,29,8.10
2010,04,29,02,30,8.10
2010,04,29,02,31,8.10
2010,04,29,02,32,8.00
2010,04,29,02,33,8.00
2010,04,29,02,34,8.00
2010,04,29,02,35,8.00
2010,04,29,02,36,7.90
2010,04,29,02,37,7.90
2010,04,29,02,38,7.90
2010,04,29,02,39,7.90
2010,04,29,02,40,7.90
2010,04,29,02,41,7.90
2010,04,29,02,42,7.90
2010,04,29,02,43,7.90
2010,04,29,02,44,7.90
2010,04,29,02,45,7.90
2010,04,29,02,46,7.90
2010,04,29,02,47,7.80
2010,04,29,02,48,7.80
2010,04,29,02,49,7.80
2010,04,29,02,50,7.80
2010,04,29,02,51,7.80
2010,04,29,02,52,7.80
2010,04,29,02,53,7.80
2010,04,29,02,54,7.70
2010,04,29,02,55,7.70
2010,04,29,02,56,7.70
2010,04,29,02,57,7.70
2010,04,29,02,58,7.70
2010,04,29,02,59,7.60
2010,04,29,03,00,7.60
2010,04,29,03,01,7.60
2010,04,29,03,02,7.60
2010,04,29,03,03,7.50
2010,04,29,03,04,7.50
2010,04,29,03,05,7.40
2010,04,29,03,06,7.40
2010,04,29,03,07,7.40
2010,04,29,03,08,7.30
2010,04,29,03,09,7.30
2010,04,29,03,10,7.30
2010,04,29,03,11,7.30
2010,04,29,03,12,7.30
2010,04,29,03,13,7.30
2010,04,29,03,14,7.30
2010,04,29,03,15,7.20
2010,04,29,03,16,7.20
2010,04,29,03,17,7.20
2010,04,29,03,18,7.20
2010,04,29,03,19,7.20
2010,04,29,03,20,7.20
2010,04,29,03,21,7.20
2010,04,29,03,22,7.20
2010,04,29,03,23,7.20
2010,04,29,03,24,7.20
2010,04,29,03,25,7.20
2010,04,29,03,26,7.20
2010,04,29,03,27,7.20
2010,04,29,03,28,7.20
2010,04,29,03,29,7.20
2010,04,29,03,30,7.20
2010,04,29,03,31,7.20
2010,04,29,03,32,7.20
2010,04,29,03,33,7.20
2010,04,29,03,34,7.20
2010,04,29,03,35,7.20
2010,04,29,03,36,7.30
2010,04,29,03,37,7.30
2010,04,29,03,38,7.30
2010,04,29,03,39,7.30
2010,04,29,03,40,7.30
2010,04,29,03,41,7.30
2010,04,29,03,42,7.30
2010,04,29,03,43,7.30
2010,04,29,03,44,7.30
2010,04,29,03,45,7.30
2010,04,29,03,46,7.30
2010,04,29,03,47,7.30
2010,04,29,03,48,7.30
2010,04,29,03,49,7.30
2010,04,29,03,50,7.30
2010,04,29,03,51,7.30
2010,04,29,03,52,7.30
2010,04,29,03,53,7.30
2010,04,29,03,54,7.30
2010,04,29,03,55,7.30
2010,04,29,03,56,7.30
2010,04,29,03,57,7.30
2010,04,29,03,58,7.30
2010,04,29,03,59,7.30
2010,04,29,04,00,7.20
2010,04,29,04,01,7.20
2010,04,29,04,02,7.20
2010,04,29,04,03,7.20
2010,04,29,04,04,7.20
2010,04,29,04,05,7.20
2010,04,29,04,06,7.20
2010,04,29,04,07,7.10
2010,04,29,04,08,7.10
2010,04,29,04,09,7.00
2010,04,29,04,10,7.00
2010,04,29,04,11,6.90
2010,04,29,04,12,6.90
2010,04,29,04,13,6.90
2010,04,29,04,14,6.80
2010,04,29,04,15,6.80
2010,04,29,04,16,6.80
2010,04,29,04,17,6.80
2010,04,29,04,18,6.80
2010,04,29,04,19,6.80
2010,04,29,04,20,6.80
2010,04,29,04,21,6.80
2010,04,29,04,22,6.80
2010,04,29,04,23,6.80
2010,04,29,04,24,6.80
2010,04,29,04,25,6.80
2010,04,29,04,26,6.90
2010,04,29,04,27,6.90
2010,04,29,04,28,6.90
2010,04,29,04,29,6.80
2010,04,29,04,30,6.80
2010,04,29,04,31,6.80
2010,04,29,04,32,6.80
2010,04,29,04,33,6.80
2010,04,29,04,34,6.80
2010,04,29,04,35,6.80
2010,04,29,04,36,6.80
2010,04,29,04,37,6.80
2010,04,29,04,38,6.80
2010,04,29,04,39,6.80
2010,04,29,04,40,6.80
2010,04,29,04,41,6.80
2010,04,29,04,42,6.80
2010,04,29,04,43,6.80
2010,04,29,04,44,6.80
2010,04,29,04,45,6.80
2010,04,29,04,46,6.80
2010,04,29,04,47,6.80
2010,04,29,04,48,6.70
2010,04,29,04,49,6.70
2010,04,29,04,50,6.60
2010,04,29,04,51,6.60
2010,04,29,04,52,6.60
2010,04,29,04,53,6.50
2010,04,29,04,54,6.50
2010,04,29,04,55,6.50
2010,04,29,04,56,6.40
2010,04,29,04,57,6.40
2010,04,29,04,58,6.40
2010,04,29,04,59,6.40
2010,04,29,05,00,6.40
2010,04,29,05,01,6.40
2010,04,29,05,02,6.40
2010,04,29,05,03,6.40
2010,04,29,05,04,6.40
2010,04,29,05,05,6.30
2010,04,29,05,06,6.30
2010,04,29,05,07,6.30
2010,04,29,05,08,6.30
2010,04,29,05,09,6.30
2010,04,29,05,10,6.30
2010,04,29,05,11,6.30
2010,04,29,05,12,6.30
2010,04,29,05,13,6.30
2010,04,29,05,14,6.30
2010,04,29,05,15,6.30
2010,04,29,05,16,6.30
2010,04,29,05,17,6.30
2010,04,29,05,18,6.30
2010,04,29,05,19,6.30
2010,04,29,05,20,6.30
2010,04,29,05,21,6.30
2010,04,29,05,22,6.20
2010,04,29,05,23,6.20
2010,04,29,05,24,6.20
2010,04,29,05,25,6.20
2010,04,29,05,26,6.10
2010,04,29,05,27,6.10
2010,04,29,05,28,6.10
2010,04,29,05,29,6.10
2010,04,29,05,30,6.10
2010,04,29,05,31,6.10
2010,04,29,05,32,6.10
2010,04,29,05,33,6.10
2010,04,29,05,34,6.00
2010,04,29,05,35,6.00
2010,04,29,05,36,6.00
2010,04,29,05,37,6.00
2010,04,29,05,38,6.00
2010,04,29,05,39,6.00
2010,04,29,05,40,6.00
2010,04,29,05,41,6.00
2010,04,29,05,42,6.00
2010,04,29,05,43,6.00
2010,04,29,05,44,6.00
2010,04,29,05,45,6.00
2010,04,29,05,46,6.00
2010,04,29,05,47,5.90
2010,04,29,05,48,5.90
2010,04,29,05,49,5.90
2010,04,29,05,50,5.90
2010,04,29,05,51,5.90
2010,04,29,05,52,5.90
2010,04,29,05,53,5.90
2010,04,29,05,54,5.90
2010,04,29,05,55,5.90
2010,04,29,05,56,6.00
2010,04,29,05,57,6.00
2010,04,29,05,58,6.00
2010,04,29,05,59,6.00
2010,04,29,06,00,6.10
2010,04,29,06,01,6.10
2010,04,29,06,02,6.10
2010,04,29,06,03,6.10
2010,04,29,06,04,6.10
2010,04,29,06,05,6.10
2010,04,29,06,06,6.20
2010,04,29,06,07,6.20
2010,04,29,06,08,6.20
2010,04,29,06,09,6.20
2010,04,29,06,10,6.20
2010,04,29,06,11,6.20
2010,04,29,06,12,6.20
2010,04,29,06,13,6.20
2010,04,29,06,14,6.30
2010,04,29,06,15,6.30
2010,04,29,06,16,6.30
2010,04,29,06,17,6.30
2010,04,29,06,18,6.30
2010,04,29,06,19,6.30
2010,04,29,06,20,6.30
2010,04,29,06,21,6.30
2010,04,29,06,22,6.30
2010,04,29,06,23,6.30
2010,04,29,06,24,6.30
2010,04,29,06,25,6.30
2010,04,29,06,26,6.30
2010,04,29,06,27,6.30
2010,04,29,06,28,6.30
2010,04,29,06,29,6.30
2010,04,29,06,30,6.30
2010,04,29,06,31,6.30
2010,04,29,06,32,6.30
2010,04,29,06,33,6.30
2010,04,29,06,34,6.30
2010,04,29,06,35,6.30
2010,04,29,06,36,6.30
2010,04,29,06,37,6.30
2010,04,29,06,38,6.30
2010,04,29,06,39,6.30
2010,04,29,06,40,6.30
2010,04,29,06,41,6.30
2010,04,29,06,42,6.30
2010,04,29,06,43,6.30
2010,04,29,06,44,6.30
2010,04,29,06,45,6.30
2010,04,29,06,46,6.40
2010,04,29,06,47,6.40
2010,04,29,06,48,6.40
2010,04,29,06,49,6.40
2010,04,29,06,50,6.40
2010,04,29,06,51,6.40
2010,04,29,06,52,6.40
2010,04,29,06,53,6.40
2010,04,29,06,54,6.40
2010,04,29,06,55,6.40
2010,04,29,06,56,6.40
2010,04,29,06,57,6.40
2010,04,29,06,58,6.40
2010,04,29,06,59,6.50
2010,04,29,07,00,6.50
2010,04,29,07,01,6.50
2010,04,29,07,02,6.60
2010,04,29,07,03,6.50
2010,04,29,07,04,6.60
2010,04,29,07,05,6.60
2010,04,29,07,06,6.60
2010,04,29,07,07,6.50
2010,04,29,07,08,6.50
2010,04,29,07,09,6.50
2010,04,29,07,10,6.50
2010,04,29,07,11,6.50
2010,04,29,07,12,6.50
2010,04,29,07,13,6.40
2010,04,29,07,14,6.40
2010,04,29,07,15,6.40
2010,04,29,07,16,6.40
2010,04,29,07,17,6.30
2010,04,29,07,18,6.30
2010,04,29,07,19,6.30
2010,04,29,07,20,6.30
2010,04,29,07,21,6.30
2010,04,29,07,22,6.30
2010,04,29,07,23,6.20
2010,04,29,07,24,6.20
2010,04,29,07,25,6.20
2010,04,29,07,26,6.20
2010,04,29,07,27,6.20
2010,04,29,07,28,6.20
2010,04,29,07,29,6.20
2010,04,29,07,30,6.20
2010,04,29,07,31,6.20
2010,04,29,07,32,6.20
2010,04,29,07,33,6.20
2010,04,29,07,34,6.20
2010,04,29,07,35,6.20
2010,04,29,07,36,6.20
2010,04,29,12,42,10.30
2010,04,29,12,43,10.20
2010,04,29,12,44,10.20
2010,04,29,12,45,10.20
2010,04,29,12,46,10.30
2010,04,29,12,47,10.40
2010,04,29,12,48,10.40
2010,04,29,12,49,10.40
2010,04,29,12,50,10.50
2010,04,29,12,51,10.60
2010,04,29,12,52,10.50
2010,04,29,12,53,10.40
2010,04,29,12,54,10.40
2010,04,29,12,55,10.40
2010,04,29,12,56,10.40
2010,04,29,12,57,10.30
2010,04,29,12,58,10.30
2010,04,29,12,59,10.40
2010,04,29,13,00,10.40
2010,04,29,13,01,10.50
2010,04,29,13,02,10.60
2010,04,29,13,03,10.60
2010,04,29,13,04,10.60
2010,04,29,13,05,10.60
2010,04,29,13,06,10.60
2010,04,29,13,07,10.70
2010,04,29,13,08,10.80
2010,04,29,13,09,10.80
2010,04,29,13,10,10.80
2010,04,29,13,11,10.90
2010,04,29,13,12,11.00
2010,04,29,13,13,11.10
2010,04,29,13,14,11.20
2010,04,29,13,15,11.20
2010,04,29,13,16,11.20
2010,04,29,13,17,11.10
2010,04,29,13,18,11.10
2010,04,29,13,19,11.10
2010,04,29,13,20,11.20
2010,04,29,13,21,11.10
2010,04,29,13,22,11.00
2010,04,29,13,23,11.10
2010,04,29,13,24,11.10
2010,04,29,13,25,11.00
2010,04,29,13,26,10.90
2010,04,29,13,27,10.90
2010,04,29,13,28,10.80
2010,04,29,13,29,10.80
2010,04,29,13,30,10.80
2010,04,29,13,31,10.80
2010,04,29,13,32,10.90
2010,04,29,13,33,10.90
2010,04,29,13,34,10.90
2010,04,29,13,35,10.80
2010,04,29,13,36,10.80
2010,04,29,13,37,10.80
2010,04,29,13,38,10.80
2010,04,29,13,39,10.80
2010,04,29,13,40,10.80
2010,04,29,13,41,10.80
2010,04,29,13,42,10.80
2010,04,29,13,43,10.80
2010,04,29,13,44,10.80
2010,04,29,13,45,10.80
2010,04,29,13,46,10.80
2010,04,29,13,47,10.80
2010,04,29,13,48,10.80
2010,04,29,13,49,10.90
2010,04,29,13,50,10.90
2010,04,29,13,51,10.90
2010,04,29,13,52,10.90
2010,04,29,13,53,10.90
2010,04,29,13,54,10.90
2010,04,29,13,55,10.90
2010,04,29,13,56,10.90
2010,04,29,13,57,10.80
2010,04,29,13,58,10.90
2010,04,29,13,59,11.00
2010,04,29,14,00,11.10
2010,04,29,14,01,11.20
2010,04,29,14,02,11.30
2010,04,29,14,03,11.20
2010,04,29,14,04,11.10
2010,04,29,14,05,11.10
2010,04,29,14,06,11.10
2010,04,29,14,07,11.10
2010,04,29,14,08,11.00
2010,04,29,14,09,11.00
2010,04,29,14,10,11.10
2010,04,29,14,11,11.10
2010,04,29,14,12,11.20
2010,04,29,14,13,11.30
2010,04,29,14,14,11.30
2010,04,29,14,15,11.30
2010,04,29,14,16,11.30
2010,04,29,14,17,11.30
2010,04,29,14,18,11.30
2010,04,29,14,19,11.30
2010,04,29,14,20,11.30
2010,04,29,14,21,11.40
2010,04,29,14,22,11.40
2010,04,29,14,23,11.50
2010,04,29,14,24,11.60
2010,04,29,14,25,11.60
2010,04,29,14,26,11.70
2010,04,29,14,27,11.80
2010,04,29,14,28,11.90
2010,04,29,14,29,11.80
2010,04,29,14,30,11.70
2010,04,29,14,31,11.60
2010,04,29,14,32,11.60
2010,04,29,14,33,11.60
2010,04,29,14,34,11.70
2010,04,29,14,35,11.70
2010,04,29,14,36,11.60
2010,04,29,14,37,11.60
2010,04,29,14,38,11.60
2010,04,29,14,39,11.70
2010,04,29,14,40,11.70
2010,04,29,14,41,11.80
2010,04,29,14,42,11.90
2010,04,29,14,43,11.90
2010,04,29,14,44,12.00
2010,04,29,14,45,12.00
2010,04,29,14,46,12.00
2010,04,29,14,47,11.90
2010,04,29,14,48,11.90
2010,04,29,14,49,11.90
2010,04,29,14,50,11.90
2010,04,29,14,51,11.90
2010,04,29,14,52,11.90
2010,04,29,14,53,11.90
2010,04,29,14,54,11.90
2010,04,29,14,55,11.90
2010,04,29,14,56,11.90
2010,04,29,14,57,11.90
2010,04,29,14,58,11.90
2010,04,29,14,59,11.90
2010,04,29,15,00,11.90
2010,04,29,15,01,11.80
2010,04,29,15,02,11.80
2010,04,29,15,03,11.70
2010,04,29,15,04,11.70
2010,04,29,15,05,11.70
2010,04,29,15,06,11.70
2010,04,29,15,07,11.70
2010,04,29,15,08,11.80
2010,04,29,15,09,11.90
2010,04,29,15,10,11.90
2010,04,29,15,11,12.00
2010,04,29,15,12,12.10
2010,04,29,15,13,12.10
2010,04,29,15,14,12.00
2010,04,29,15,15,12.00
2010,04,29,15,16,12.00
2010,04,29,15,17,12.00
2010,04,29,15,18,12.10
2010,04,29,15,19,12.20
2010,04,29,15,20,12.20
2010,04,29,15,21,12.30
2010,04,29,15,22,12.30
2010,04,29,15,23,12.20
2010,04,29,15,24,12.10
2010,04,29,15,25,12.10
2010,04,29,15,26,12.10
2010,04,29,15,27,12.10
2010,04,29,15,28,12.10
2010,04,29,15,29,12.20
2010,04,29,15,30,12.20
2010,04,29,15,31,12.20
2010,04,29,15,32,12.20
2010,04,29,15,33,12.20
2010,04,29,15,34,12.20
2010,04,29,15,35,12.20
2010,04,29,15,36,12.20
2010,04,29,15,37,12.20
2010,04,29,15,38,12.20
2010,04,29,15,39,12.20
2010,04,29,15,40,12.20
2010,04,29,15,41,12.20
2010,04,29,15,42,12.10
2010,04,29,15,43,12.00
2010,04,29,15,44,12.00
2010,04,29,15,45,12.00
2010,04,29,15,46,12.00
2010,04,29,15,47,12.00
2010,04,29,15,48,12.10
2010,04,29,15,49,12.20
2010,04,29,15,50,12.20
2010,04,29,15,51,12.30
2010,04,29,15,52,12.40
2010,04,29,15,53,12.40
2010,04,29,15,54,12.30
2010,04,29,15,55,12.40
2010,04,29,15,56,12.40
2010,04,29,15,57,12.50
2010,04,29,15,58,12.50
2010,04,29,15,59,12.60
2010,04,29,16,00,12.50
2010,04,29,16,01,12.50
2010,04,29,16,02,12.50
2010,04,29,16,03,12.40
2010,04,29,16,04,12.40
2010,04,29,16,05,12.50
2010,04,29,16,06,12.50
2010,04,29,16,07,12.40
2010,04,29,16,08,12.40
2010,04,29,16,09,12.30
2010,04,29,16,10,12.30
2010,04,29,16,11,12.30
2010,04,29,16,12,12.30
2010,04,29,16,13,12.30
2010,04,29,16,14,12.30
2010,04,29,16,15,12.30
2010,04,29,16,16,12.40
2010,04,29,16,17,12.50
2010,04,29,16,18,12.50
2010,04,29,16,19,12.60
2010,04,29,16,20,12.60
2010,04,29,16,21,12.70
2010,04,29,16,22,12.70
2010,04,29,16,23,12.60
2010,04,29,16,24,12.50
2010,04,29,16,25,12.50
2010,04,29,16,26,12.40
2010,04,29,16,27,12.50
2010,04,29,16,28,12.50
2010,04,29,16,29,12.50
2010,04,29,16,30,12.40
2010,04,29,16,31,12.40
2010,04,29,16,32,12.30
2010,04,29,16,33,12.30
2010,04,29,16,34,12.30
2010,04,29,16,35,12.30
2010,04,29,16,36,12.30
2010,04,29,16,37,12.30
2010,04,29,16,38,12.30
2010,04,29,16,39,12.30
2010,04,29,16,40,12.30
2010,04,29,16,41,12.30
2010,04,29,16,42,12.30
2010,04,29,16,43,12.30
2010,04,29,16,44,12.30
2010,04,29,16,45,12.30
2010,04,29,16,46,12.40
2010,04,29,16,47,12.40
2010,04,29,16,48,12.50
2010,04,29,16,49,12.60
2010,04,29,16,50,12.60
2010,04,29,16,51,12.60
2010,04,29,16,52,12.70
2010,04,29,16,53,12.70
2010,04,29,16,54,12.60
2010,04,29,16,55,12.70
2010,04,29,16,56,12.70
2010,04,29,16,57,12.70
2010,04,29,16,58,12.80
2010,04,29,16,59,12.70
2010,04,29,17,00,12.70
2010,04,29,17,01,12.60
2010,04,29,17,02,12.70
2010,04,29,17,03,12.70
2010,04,29,17,04,12.70
2010,04,29,17,05,12.70
2010,04,29,17,06,12.80
2010,04,29,17,07,12.80
2010,04,29,17,08,12.80
2010,04,29,17,09,12.80
2010,04,29,17,10,12.80
2010,04,29,17,11,12.80
2010,04,29,17,12,12.80
2010,04,29,17,13,12.80
2010,04,29,17,14,12.80
2010,04,29,17,15,12.70
2010,04,29,17,16,12.70
2010,04,29,17,17,12.60
2010,04,29,17,18,12.60
2010,04,29,17,19,12.70
2010,04,29,17,20,12.70
2010,04,29,17,21,12.70
2010,04,29,17,22,12.70
2010,04,29,17,23,12.70
2010,04,29,17,24,12.80
2010,04,29,17,25,12.80
2010,04,29,17,26,12.80
2010,04,29,17,27,12.80
2010,04,29,17,28,12.90
2010,04,29,17,29,12.90
2010,04,29,17,30,12.90
2010,04,29,17,31,12.90
2010,04,29,17,32,12.80
2010,04,29,17,33,12.70
2010,04,29,17,34,12.70
2010,04,29,17,35,12.80
2010,04,29,17,36,12.80
2010,04,29,17,37,12.80
2010,04,29,17,38,12.80
2010,04,29,17,39,12.90
2010,04,29,17,40,12.90
2010,04,29,17,41,12.90
2010,04,29,17,42,12.90
2010,04,29,17,43,12.80
2010,04,29,17,44,12.80
2010,04,29,17,45,12.80
2010,04,29,17,46,12.70
2010,04,29,17,47,12.70
2010,04,29,17,48,12.70
2010,04,29,17,49,12.70
2010,04,29,17,50,12.70
2010,04,29,17,51,12.70
2010,04,29,17,52,12.60
2010,04,29,17,53,12.60
2010,04,29,17,54,12.60
2010,04,29,17,55,12.60
2010,04,29,17,56,12.60
2010,04,29,17,57,12.70
2010,04,29,17,58,12.70
2010,04,29,17,59,12.70
2010,04,29,18,00,12.70
2010,04,29,18,01,12.80
2010,04,29,18,02,12.80
2010,04,29,18,03,12.80
2010,04,29,18,04,12.80
2010,04,29,18,05,12.80
2010,04,29,18,06,12.80
2010,04,29,18,07,12.80
2010,04,29,18,08,12.80
2010,04,29,18,09,12.80
2010,04,29,18,10,12.90
2010,04,29,18,11,12.90
2010,04,29,18,12,12.90
2010,04,29,18,13,12.80
2010,04,29,18,14,12.80
2010,04,29,18,15,12.80
2010,04,29,18,16,12.90
2010,04,29,18,17,13.00
2010,04,29,18,18,13.00
2010,04,29,18,19,13.10
2010,04,29,18,20,13.10
2010,04,29,18,21,13.10
2010,04,29,18,22,13.10
2010,04,29,18,23,13.10
2010,04,29,18,24,13.10
2010,04,29,18,25,13.10
2010,04,29,18,26,13.10
2010,04,29,18,27,13.10
2010,04,29,18,28,13.00
2010,04,29,18,29,13.00
2010,04,29,18,30,13.00
2010,04,29,18,31,13.00
2010,04,29,18,32,13.00
2010,04,29,18,33,12.90
2010,04,29,18,34,12.90
2010,04,29,18,35,12.90
2010,04,29,18,36,12.90
2010,04,29,18,37,12.90
2010,04,29,18,38,12.90
2010,04,29,18,39,12.90
2010,04,29,18,40,12.90
2010,04,29,18,41,12.90
2010,04,29,18,42,12.90
2010,04,29,18,43,12.90
2010,04,29,18,44,12.90
2010,04,29,18,45,13.00
2010,04,29,18,46,13.00
2010,04,29,18,47,13.00
2010,04,29,18,48,12.90
2010,04,29,18,49,12.90
2010,04,29,18,50,12.90
2010,04,29,18,51,12.90
2010,04,29,18,52,12.90
2010,04,29,18,53,12.90
2010,04,29,18,54,12.90
2010,04,29,18,55,12.90
2010,04,29,18,56,12.90
2010,04,29,18,57,12.90
2010,04,29,18,58,13.00
2010,04,29,18,59,13.00
2010,04,29,19,00,13.10
2010,04,29,19,01,13.20
2010,04,29,19,02,13.20
2010,04,29,19,03,13.20
2010,04,29,19,04,13.20
2010,04,29,19,05,13.10
2010,04,29,19,06,13.10
2010,04,29,19,07,13.10
2010,04,29,19,08,13.10
2010,04,29,19,09,13.00
2010,04,29,19,10,13.00
2010,04,29,19,11,12.90
2010,04,29,19,12,12.90
2010,04,29,19,13,12.90
2010,04,29,19,14,12.80
2010,04,29,19,15,12.80
2010,04,29,19,16,12.80
2010,04,29,19,17,12.80
2010,04,29,19,18,12.70
2010,04,29,19,19,12.70
2010,04,29,19,20,12.70
2010,04,29,19,21,12.60
2010,04,29,19,22,12.60
2010,04,29,19,23,12.60
2010,04,29,19,24,12.60
2010,04,29,19,25,12.60
2010,04,29,19,26,12.60
2010,04,29,19,27,12.60
2010,04,29,19,28,12.60
2010,04,29,19,29,12.60
2010,04,29,19,30,12.60
2010,04,29,19,31,12.60
2010,04,29,19,32,12.60
2010,04,29,19,33,12.60
2010,04,29,19,34,12.60
2010,04,29,19,35,12.60
2010,04,29,19,36,12.60
2010,04,29,19,37,12.60
2010,04,29,19,38,12.60
2010,04,29,19,39,12.60
2010,04,29,19,40,12.60
2010,04,29,19,41,12.60
2010,04,29,19,42,12.60
2010,04,29,19,43,12.60
2010,04,29,19,44,12.60
2010,04,29,19,45,12.60
2010,04,29,19,46,12.50
2010,04,29,19,47,12.50
2010,04,29,19,48,12.50
2010,04,29,19,49,12.50
2010,04,29,19,50,12.40
2010,04,29,19,51,12.50
2010,04,29,19,52,12.40
2010,04,29,19,53,12.40
2010,04,29,19,54,12.40
2010,04,29,19,55,12.40
2010,04,29,19,56,12.40
2010,04,29,19,57,12.40
2010,04,29,19,58,12.40
2010,04,29,19,59,12.40
2010,04,29,20,00,12.40
2010,04,29,20,01,12.40
2010,04,29,20,02,12.30
2010,04,29,20,03,12.30
2010,04,29,20,04,12.30
2010,04,29,20,05,12.30
2010,04,29,20,06,12.30
2010,04,29,20,07,12.30
2010,04,29,20,08,12.30
2010,04,29,20,09,12.30
2010,04,29,20,10,12.30
2010,04,29,20,11,12.30
2010,04,29,20,12,12.30
2010,04,29,20,13,12.30
2010,04,29,20,14,12.30
2010,04,29,20,15,12.30
2010,04,29,20,16,12.20
2010,04,29,20,17,12.20
2010,04,29,20,18,12.20
2010,04,29,20,19,12.20
2010,04,29,20,20,12.20
2010,04,29,20,21,12.20
2010,04,29,20,22,12.20
2010,04,29,20,23,12.10
2010,04,29,20,24,12.10
2010,04,29,20,25,12.10
2010,04,29,20,26,12.10
2010,04,29,20,27,12.10
2010,04,29,20,28,12.10
2010,04,29,20,29,12.10
2010,04,29,20,30,12.00
2010,04,29,20,31,12.00
2010,04,29,20,32,12.00
2010,04,29,20,33,11.90
2010,04,29,20,34,11.90
2010,04,29,20,35,11.90
2010,04,29,20,36,11.90
2010,04,29,20,37,11.80
2010,04,29,20,38,11.80
2010,04,29,20,39,11.80
2010,04,29,20,40,11.80
2010,04,29,20,41,11.80
2010,04,29,20,42,11.70
2010,04,29,20,43,11.70
2010,04,29,20,44,11.70
2010,04,29,20,45,11.70
2010,04,29,20,46,11.60
2010,04,29,20,47,11.60
2010,04,29,20,48,11.60
2010,04,29,20,49,11.60
2010,04,29,20,50,11.50
2010,04,29,20,51,11.50
2010,04,29,20,52,11.50
2010,04,29,20,53,11.40
2010,04,29,20,54,11.40
2010,04,29,20,55,11.30
2010,04,29,20,56,11.30
2010,04,29,20,57,11.30
2010,04,29,20,58,11.20
2010,04,29,20,59,11.20
2010,04,29,21,00,11.20
2010,04,29,21,01,11.20
2010,04,29,21,02,11.10
2010,04,29,21,03,11.10
2010,04,29,21,04,11.10
2010,04,29,21,05,11.00
2010,04,29,21,06,11.00
2010,04,29,21,07,11.00
2010,04,29,21,08,11.00
2010,04,29,21,09,11.00
2010,04,29,21,10,10.90
2010,04,29,21,11,10.90
2010,04,29,21,12,10.90
2010,04,29,21,13,10.90
2010,04,29,21,14,10.90
2010,04,29,21,15,10.90
2010,04,29,21,16,10.90
2010,04,29,21,17,10.80
2010,04,29,21,18,10.80
2010,04,29,21,19,10.80
2010,04,29,21,20,10.80
2010,04,29,21,21,10.80
2010,04,29,21,22,10.80
2010,04,29,21,23,10.80
2010,04,29,21,24,10.80
2010,04,29,21,25,10.80
2010,04,29,21,26,10.80
2010,04,29,21,27,10.80
2010,04,29,21,28,10.80
2010,04,29,21,29,10.80
2010,04,29,21,30,10.80
2010,04,29,21,31,10.80
2010,04,29,21,32,10.80
2010,04,29,21,33,10.80
2010,04,29,21,34,10.80
2010,04,29,21,35,10.80
2010,04,29,21,36,10.80
2010,04,29,21,37,10.80
2010,04,29,21,38,10.80
2010,04,29,21,39,10.70
2010,04,29,21,40,10.70
2010,04,29,21,41,10.70
2010,04,29,21,42,10.70
2010,04,29,21,43,10.70
2010,04,29,21,44,10.70
2010,04,29,21,45,10.70
2010,04,29,21,46,10.70
2010,04,29,21,47,10.70
2010,04,29,21,48,10.70
2010,04,29,21,49,10.70
2010,04,29,21,50,10.70
2010,04,29,21,51,10.70
2010,04,29,21,52,10.70
2010,04,29,21,53,10.70
2010,04,29,21,54,10.70
2010,04,29,21,55,10.70
2010,04,29,21,56,10.70
2010,04,29,21,57,10.70
2010,04,29,21,58,10.70
2010,04,29,21,59,10.70
2010,04,29,22,00,10.70
2010,04,29,22,01,10.70
2010,04,29,22,02,10.70
2010,04,29,22,03,10.70
2010,04,29,22,04,10.60
2010,04,29,22,05,10.60
2010,04,29,22,06,10.60
2010,04,29,22,07,10.60
2010,04,29,22,08,10.60
2010,04,29,22,09,10.60
2010,04,29,22,10,10.60
2010,04,29,22,11,10.50
2010,04,29,22,12,10.50
2010,04,29,22,13,10.50
2010,04,29,22,14,10.50
2010,04,29,22,15,10.40
2010,04,29,22,16,10.40
2010,04,29,22,17,10.40
2010,04,29,22,18,10.40
2010,04,29,22,19,10.50
2010,04,29,22,20,10.40
2010,04,29,22,21,10.40
2010,04,29,22,22,10.40
2010,04,29,22,23,10.40
2010,04,29,22,24,10.40
2010,04,29,22,25,10.40
2010,04,29,22,26,10.40
2010,04,29,22,27,10.40
2010,04,29,22,28,10.40
2010,04,29,22,29,10.40
2010,04,29,22,30,10.50
2010,04,29,22,31,10.50
2010,04,29,22,32,10.50
2010,04,29,22,33,10.50
2010,04,29,22,34,10.50
2010,04,29,22,35,10.60
2010,04,29,22,36,10.60
2010,04,29,22,37,10.60
2010,04,29,22,38,10.60
2010,04,29,22,39,10.60
2010,04,29,22,40,10.60
2010,04,29,22,41,10.60
2010,04,29,22,42,10.60
2010,04,29,22,43,10.60
2010,04,29,22,44,10.60